Location: *
(57.8420°S, 159.8600°W)
Time: 13:03:29
(UTC+00:00)

CZ-2C R/B - Pass Details

Date: 18 May 2021
Orbit: 668 x 783 km, 98.2° (Epoch: 22 June)

Event Time Altitude Azimuth Distance (km) Brightness Sun altitude
Rises 03:10:46 0° 165° (SSE) 3,110 5.2 -5.8°
Reaches altitude 10° 03:13:04 10° 167° (SSE) 2,173 4.5 -6.1°
Maximum altitude 03:17:46 67° 249° (WSW) 747 2.7 -6.7°
Drops below altitude 10° 03:22:21 10° 330° (NNW) 2,119 5.8 -7.2°
Sets 03:24:34 0° 332° (NNW) 3,026 6.5 -7.5°
